Regional Weather Roundup
Issued by NWS

Home | Current Version | Previous Version | Graphics & Text | Print | Product List | Glossary On
Versions: 1 2 3 4 5 6 7 8 9 10 11 12 13 14 15 16 17 18 19 20 21 22 23 24 25 26 27 28 29 30 31 32 33 34 35 36 37 38 39 40 41 42 43 44 45 46 47 48 49 50
000
ASUS45 KBOU 061907
RWRCO

WEATHER ROUNDUP FOR COLORADO
NATIONAL WEATHER SERVICE DENVER/BOULDER CO
1200 PM MST FRI MAR 06 2015

NOTE: "FAIR" INDICATES FEW OR NO CLOUDS BELOW 12000 FEET WITH NO
SIGNIFICANT WEATHER AND/OR OBSTRUCTIONS TO VISIBILITY.

COZ001>005-013-030-031-062000-
...NORTHWEST COLORADO...

CITY           SKY/WX    TMP DP  RH WIND       PRES   REMARKS
CRAIG          SUNNY     39  17  41 E6        30.43F
HAYDEN         SUNNY     36  14  41 E5        30.43F
MEEKER         SUNNY     44  16  32 CALM      30.42F
MOUNT WERNER   NOT AVBL
STEAMBOAT SPGS SUNNY     29  13  52 CALM      30.43F
WALDEN         SUNNY     34  14  44 S13       30.37F WCI  25
$$

COZ006>008-011-062000-
...WEST CENTRAL VALLEYS...

CITY           SKY/WX    TMP DP  RH WIND       PRES   REMARKS
GRAND JUNCTION SUNNY     45  16  31 VRB6      30.44F
MONTROSE       SUNNY     41  16  36 CALM      30.45F
EAGLE          NOT AVBL
RIFLE          SUNNY     41  16  36 CALM      30.44F
DELTA          SUNNY     44  18  34 CALM      30.45F
NUCLA          SUNNY     43  18  36 N6        30.45F
$$

COZ017>023-064>068-062000-
...SOUTHWEST COLORADO...

CITY           SKY/WX    TMP DP  RH WIND       PRES   REMARKS
DURANGO        SUNNY     38  20  48 NE6       30.40F
CORTEZ         SUNNY     45  17  32 SW3       30.41F
PAGOSA SPRINGS SUNNY     42   7  23 SW3       30.40F
TELLURIDE      SUNNY     42  -4  14 W7        30.42S
WOLF CREEK PAS SUNNY     28   9  43 S12       30.48S WCI  18
$$

COZ009-010-012-014-032>034-037-058>063-062000-
...CENTRAL COLORADO...

CITY           SKY/WX    TMP DP  RH WIND       PRES   REMARKS
ASPEN          SUNNY     37  11  34 NW6       30.41F
BUENA VISTA    SUNNY     40  10  29 S10       30.35F
COPPER MTN     SUNNY     28  -8  20 W15G24    30.43R WCI  17
BERTHOUD PASS  NOT AVBL
COTTONWOOD PAS SUNNY     37   0  20 SE8       30.38S
GUNNISON       SUNNY     18  10  73 SE3       30.50F
KREMMLING      SUNNY     30  12  47 CALM      30.46F
LEADVILLE      SUNNY     35   0  22 VRB6      30.39S WCI  30
SALIDA         SUNNY     46   7  20 CALM      30.42F
SUNLIGHT       SUNNY     30  14  51 CALM        N/A
WILKERSON PASS SUNNY     32   0  25 NW10G17   30.40S WCI  24
$$

COZ069>075-062000-
...SAN LUIS VALLEY/SANGRE DE CRISTO MOUNTAINS...

CITY           SKY/WX    TMP DP  RH WIND       PRES   REMARKS
ALAMOSA        NOT AVBL
LA VETA PASS   SUNNY     39   7  26 SW9G18    30.38F
SAGUACHE       SUNNY     37  14  38 S9        30.41F
$$

COZ035-036-038>040-062000-
...NORTHERN COLORADO FRONT RANGE...

CITY           SKY/WX    TMP DP  RH WIND       PRES   REMARKS
DENVER INTL AP MOSUNNY   45  19  35 S8        30.27F
DMNS CITY PARK   N/A     52   5  15 SE6       30.26F
AURORA         MOSUNNY   46  17  30 E8        30.28F
FRONT RANGE AP MOSUNNY   48  16  27 S5        30.29F
ERIE MUNI ARPT SUNNY     45  22  40 N5        30.27F
BOULDER MUN AP SUNNY     46  14  27 CALM      30.27F
CENTENNIAL     MOSUNNY   47   5  18 SE7       30.28F
BROOMFIELD     NOT AVBL
FORT COLLINS   SUNNY     41  19  42 S3        30.30S
LONGMONT       SUNNY     56  14  19 CALM      30.29F
$$

COZ041-046-047-076>085-087-088-062000-
...PIKES PEAK/PALMER DIVIDE AND SOUTHERN FOOTHILLS...

CITY           SKY/WX    TMP DP  RH WIND       PRES   REMARKS
COLO. SPRINGS  SUNNY     47  14  26 S5        30.30F
A. F. ACADEMY  SUNNY     45   9  22 SE9       30.29F
ELLICOTT       NOT AVBL
FALCON         SUNNY     46  11  24 NE3       30.32F
FORT CARSON    SUNNY     47  13  25 SE6       30.29F
LIMON          SUNNY     39  21  48 N6        30.31F
MONUMENT HILL  SUNNY     43  12  28 E5        30.30S
TRINIDAD       SUNNY     51  23  33 NE6       30.30F
$$

COZ042>045-048>051-090-091-062000-
...NORTHEAST COLORADO...

CITY           SKY/WX    TMP DP  RH WIND       PRES   REMARKS
GREELEY ARPT   SUNNY     52  21  30 SE6       30.27F
AKRON          SUNNY     51  14  22 NW15G22   30.28F
BURLINGTON     SUNNY     55  16  21 W14       30.29F
WRAY           NOT AVBL
STERLING       SUNNY     55  18  22 NW9G21    30.25F
HOLYOKE        SUNNY     59  16  18 NW10      30.25F
FORT MORGAN    SUNNY     53  13  21 W9        30.28F
$$

COZ086-089-092>099-062000-
...SOUTHEAST COLORADO...

CITY           SKY/WX    TMP DP  RH WIND       PRES   REMARKS
PUEBLO         SUNNY     50  21  32 CALM      30.30F
LA JUNTA       SUNNY     52  24  33 MISG      30.30F
LAMAR          SUNNY     54  26  34 SW8       30.30F
SPRINGFIELD      N/A     54  16  22 VRB6      30.31F
$$


USA.gov is the U.S. government's official web portal to all federal, state and local government web resources and services.